Atlanta Fulton, GA

5:38 PM EST on November 11, 2019 (GMT -0500)
Fulton County-Brown

Weather History for KFTY - September, 2019

Change the Weather History Date:

Monday, September 16, 2019

  Actual Average Record
Temperature  
Mean Temperature 81 °F 73 °F  
Max Temperature 95 °F 84 °F 90 °F (2005)
Min Temperature 67 °F 62 °F 48 °F (2001)
Degree Days  
Heating Degree Days 0 0  
Month to date heating degree days 0 0  
Since 1 July heating degree days 0 0  
Cooling Degree Days 16 8  
Month to date cooling degree days 264 160  
Year to date cooling degree days 1980 1597  
Growing Degree Days 32 (Base 50)    
Moisture  
Dew Point 66 °F    
Average Humidity 61    
Maximum Humidity 93    
Minimum Humidity 28    
Precipitation  
Precipitation 0.00 in 0.13 in 2.50 in (2004)
Month to date precipitation 1.61 2.03  
Year to date precipitation 31.90 37.45  
Sea Level Pressure  
Sea Level Pressure 30.03 in    
Wind  
Wind Speed 2 mph (North)    
Max Wind Speed 12 mph    
Max Gust Speed 15 mph    
Visibility 10 miles    
Events      
T = Trace of Precipitation, MM = Missing Value Source: NWS Daily Summary

Daily Weather History Graph

Daily Weather History Graph

Search for Another Location

Airport or City:

Astronomy

Sep. 16, 2019 Rise Set
Actual Time 7:21 AM EDT 7:43 PM EDT
Civil Twilight 6:56 AM EDT 8:08 PM EDT
Nautical Twilight 6:27 AM EDT 8:37 PM EDT
Astronomical Twilight 5:57 AM EDT 9:07 PM EDT
Moon 9:23 PM EDT (9/16) 9:23 AM EDT (9/16)
Length of Visible Light 13h 11m
Length of Day
12h 21m
Waning Gibbous, 94% of the Moon is Illuminated
Sep 16
Waning Gibbous
Sep 21
Last Quarter
Sep 28
New
Oct 5
First Quarter
Oct 13
Full

Hourly Weather History & Observations

Time (EDT) Temp. Heat Index Dew Point Humidity Pressure Visibility Wind Dir Wind Speed Gust Speed Precip Events Conditions
12:53 AM 73.0 °F - 69.1 °F 87% 30.07 in 10.0 mi Calm Calm - N/A   Clear
1:53 AM 71.1 °F - 68.0 °F 90% 30.06 in 10.0 mi Calm Calm - N/A   Clear
2:53 AM 71.1 °F - 68.0 °F 90% 30.06 in 10.0 mi Calm Calm - N/A   Clear
3:53 AM 71.1 °F - 68.0 °F 90% 30.06 in 10.0 mi Calm Calm - N/A   Clear
4:53 AM 70.0 °F - 66.9 °F 90% 30.06 in 10.0 mi Calm Calm - N/A   Clear
5:53 AM 68.0 °F - 66.0 °F 93% 30.06 in 7.0 mi Calm Calm - N/A   Clear
6:53 AM 69.1 °F - 66.9 °F 93% 30.08 in 10.0 mi Calm Calm - N/A   Clear
8:53 AM 75.0 °F - 69.1 °F 82% 30.10 in 10.0 mi Calm Calm - N/A   Clear
9:53 AM 80.1 °F 83.6 °F 71.1 °F 74% 30.11 in 10.0 mi NE 3.5 mph - N/A   Clear
10:53 AM 84.0 °F 87.8 °F 69.1 °F 61% 30.10 in 10.0 mi North 3.5 mph - N/A   Clear
11:53 AM 87.1 °F 90.6 °F 68.0 °F 53% 30.09 in 10.0 mi Variable 3.5 mph - N/A   Clear
12:53 PM 89.1 °F 92.1 °F 66.9 °F 48% 30.06 in 10.0 mi Variable 3.5 mph - N/A   Clear
1:53 PM 91.9 °F 93.3 °F 64.0 °F 39% 30.04 in 10.0 mi Variable 6.9 mph - N/A   Partly Cloudy
2:53 PM 93.9 °F 94.0 °F 61.0 °F 33% 30.01 in 10.0 mi North - - N/A   Clear
3:53 PM 95.0 °F 94.8 °F 60.1 °F 31% 29.99 in 10.0 mi NNW 6.9 mph - N/A   Clear
4:53 PM 93.9 °F 93.2 °F 59.0 °F 31% 29.97 in 10.0 mi Variable 4.6 mph - N/A   Clear
5:53 PM 95.0 °F 94.0 °F 57.9 °F 29% 29.96 in 10.0 mi Variable 3.5 mph - N/A   Clear
6:53 PM 93.0 °F 92.3 °F 59.0 °F 32% 29.96 in 10.0 mi NW 3.5 mph - N/A   Clear
7:53 PM 82.9 °F 85.0 °F 66.0 °F 56% 29.96 in 10.0 mi Calm Calm - N/A   Clear
8:53 PM 79.0 °F - 68.0 °F 69% 29.97 in 10.0 mi Calm Calm - N/A   Clear
9:53 PM 75.9 °F - 68.0 °F 76% 29.99 in 10.0 mi Calm Calm - N/A   Clear
10:53 PM 75.9 °F - 66.9 °F 74% 29.99 in 10.0 mi Calm Calm - N/A   Clear
11:53 PM 72.0 °F - 66.9 °F 84% 29.99 in 10.0 mi Calm Calm - N/A   Clear